| time (UTC) | temp C | wind direction | speed KPH | gust KPH | rain 1hr cm | rain 24hr cm | rain mn cm | humidity % | barometer mb |
| 20260507040908 | 20 | 69 | 1.6 | 4.8 | 0.00 | 0.00 | 0.00 | 57 | 1017.8 |
| 20260507040409 | 20 | 69 | 3.2 | 4.8 | 0.00 | 0.00 | 0.00 | 57 | 1017.8 |
| 20260507035908 | 20 | 69 | 1.6 | 4.8 | 0.00 | 0.00 | 0.00 | 56 | 1017.7 |
| 20260507035410 | 21 | 69 | 1.6 | 3.2 | 0.00 | 0.00 | 0.00 | 56 | 1017.7 |
| 20260507034908 | 21 | 69 | 3.2 | 4.8 | 0.00 | 0.00 | 0.00 | 56 | 1017.6 |
| 20260507034847 | 21 | 69 | 1.6 | 4.8 | 0.00 | 0.00 | 0.00 | 56 | 1017.6 |
| 20260507033909 | 21 | 69 | 3.2 | 4.8 | 0.00 | 0.00 | 0.00 | 55 | 1017.5 |
| 20260507033408 | 21 | 69 | 1.6 | 4.8 | 0.00 | 0.00 | 0.00 | 55 | 1017.5 |
| 20260507032907 | 21 | 69 | 1.6 | 3.2 | 0.00 | 0.00 | 0.00 | 55 | 1017.4 |
| 20260507032409 | 21 | 69 | 1.6 | 4.8 | 0.00 | 0.00 | 0.00 | 54 | 1017.4 |
| 20260507031909 | 21 | 69 | 1.6 | 4.8 | 0.00 | 0.00 | 0.00 | 54 | 1017.3 |
| 20260507031409 | 21 | 69 | 1.6 | 6.4 | 0.00 | 0.00 | 0.00 | 53 | 1017.3 |
| 20260507030908 | 22 | 69 | 4.8 | 6.4 | 0.00 | 0.00 | 0.00 | 53 | 1017.3 |
| 20260507030406 | 22 | 63 | 3.2 | 6.4 | 0.00 | 0.00 | 0.00 | 53 | 1017.1 |
| 20260507030130 | 22 | 56 | 1.6 | 6.4 | 0.00 | 0.00 | 0.00 | 52 | 1017.2 |
| 20260507025407 | 22 | 58 | 3.2 | 9.7 | 0.00 | 0.00 | 0.00 | 52 | 1017.2 |
| 20260507024908 | 22 | 54 | 3.2 | 9.7 | 0.00 | 0.00 | 0.00 | 51 | 1017.1 |
| 20260507024631 | 22 | 32 | 3.2 | 6.4 | 0.00 | 0.00 | 0.00 | 50 | 1017.1 |
| 20260507023907 | 22 | 48 | 3.2 | 6.4 | 0.00 | 0.00 | 0.00 | 50 | 1016.8 |
| 20260507023407 | 22 | 52 | 3.2 | 11.3 | 0.00 | 0.00 | 0.00 | 50 | 1016.8 |
| 20260507022908 | 22 | 30 | 3.2 | 11.3 | 0.00 | 0.00 | 0.00 | 49 | 1016.8 |
| 20260507022407 | 23 | 27 | 4.8 | 9.7 | 0.00 | 0.00 | 0.00 | 49 | 1016.7 |
| 20260507021906 | 23 | 34 | 3.2 | 8.0 | 0.00 | 0.00 | 0.00 | 48 | 1016.6 |
| 20260507021406 | 23 | 42 | 4.8 | 9.7 | 0.00 | 0.00 | 0.00 | 48 | 1016.6 |
| 20260507020908 | 23 | 10 | 4.8 | 9.7 | 0.00 | 0.00 | 0.00 | 47 | 1016.7 |
| 20260507020626 | 23 | 16 | 4.8 | 9.7 | 0.00 | 0.00 | 0.00 | 47 | 1016.7 |
| 20260507015906 | 23 | 28 | 4.8 | 9.7 | 0.00 | 0.00 | 0.00 | 47 | 1016.6 |
| 20260507015405 | 23 | 0 | 6.4 | 9.7 | 0.00 | 0.00 | 0.00 | 47 | 1016.8 |
| 20260507014906 | 24 | 14 | 3.2 | 9.7 | 0.00 | 0.00 | 0.00 | 46 | 1016.6 |
| 20260507014407 | 24 | 11 | 8.0 | 9.7 | 0.00 | 0.00 | 0.00 | 46 | 1016.6 |
| 20260507013907 | 24 | 17 | 1.6 | 6.4 | 0.00 | 0.00 | 0.00 | 46 | 1016.5 |
| 20260507013405 | 24 | 17 | 4.8 | 6.4 | 0.00 | 0.00 | 0.00 | 46 | 1016.6 |
| 20260507013131 | 24 | 350 | 3.2 | 8.0 | 0.00 | 0.00 | 0.00 | 46 | 1016.5 |
| 20260507012406 | 24 | 0 | 3.2 | 11.3 | 0.00 | 0.00 | 0.00 | 46 | 1016.5 |
| 20260507011905 | 24 | 0 | 6.4 | 14.5 | 0.00 | 0.00 | 0.00 | 46 | 1016.5 |
| 20260507011405 | 24 | 351 | 6.4 | 14.5 | 0.00 | 0.00 | 0.00 | 45 | 1016.4 |
| 20260507010906 | 24 | 31 | 4.8 | 14.5 | 0.00 | 0.00 | 0.00 | 45 | 1016.4 |
| 20260507010405 | 24 | 49 | 3.2 | 14.5 | 0.00 | 0.00 | 0.00 | 45 | 1016.5 |
| 20260507005906 | 24 | 20 | 4.8 | 11.3 | 0.00 | 0.00 | 0.00 | 45 | 1016.4 |
| 20260507005405 | 25 | 45 | 9.7 | 11.3 | 0.00 | 0.00 | 0.00 | 44 | 1016.6 |
| 20260507004906 | 25 | 0 | 4.8 | 8.0 | 0.00 | 0.00 | 0.00 | 45 | 1016.5 |
| 20260507004404 | 24 | 1 | 3.2 | 14.5 | 0.00 | 0.00 | 0.00 | 45 | 1016.5 |
| 20260507004124 | 24 | 94 | 4.8 | 14.5 | 0.00 | 0.00 | 0.00 | 44 | 1016.5 |
| 20260507003405 | 24 | 72 | 3.2 | 9.7 | 0.00 | 0.00 | 0.00 | 44 | 1016.6 |
| 20260507002905 | 24 | 44 | 4.8 | 9.7 | 0.00 | 0.00 | 0.00 | 44 | 1016.6 |
| 20260507002405 | 25 | 59 | 3.2 | 16.1 | 0.00 | 0.00 | 0.00 | 44 | 1016.6 |
| 20260507001904 | 25 | 42 | 8.0 | 16.1 | 0.00 | 0.00 | 0.00 | 44 | 1016.5 |
| 20260507001404 | 25 | 17 | 6.4 | 14.5 | 0.00 | 0.00 | 0.00 | 43 | 1016.5 |
| 20260507000905 | 25 | 16 | 6.4 | 14.5 | 0.00 | 0.00 | 0.00 | 43 | 1016.4 |
| 20260507000406 | 25 | 34 | 6.4 | 14.5 | 0.00 | 0.00 | 0.00 | 43 | 1016.5 |
| 20260506235904 | 25 | 4 | 6.4 | 9.7 | 0.00 | 0.00 | 0.00 | 43 | 1016.5 |
| 20260506235405 | 25 | 4 | 4.8 | 9.7 | 0.00 | 0.00 | 0.00 | 42 | 1016.4 |
| 20260506234905 | 25 | 347 | 3.2 | 9.7 | 0.00 | 0.00 | 0.00 | 43 | 1016.4 |
| 20260506234403 | 25 | 49 | 3.2 | 9.7 | 0.00 | 0.00 | 0.00 | 43 | 1016.5 |
| 20260506233903 | 25 | 37 | 6.4 | 16.1 | 0.00 | 0.00 | 0.00 | 44 | 1016.5 |
| 20260506233403 | 25 | 345 | 4.8 | 16.1 | 0.00 | 0.00 | 0.00 | 44 | 1016.5 |
| 20260506232902 | 25 | 10 | 3.2 | 16.1 | 0.00 | 0.00 | 0.00 | 43 | 1016.5 |
| 20260506232403 | 25 | 82 | 8.0 | 16.1 | 0.00 | 0.00 | 0.00 | 43 | 1016.5 |
| 20260506231904 | 25 | 32 | 4.8 | 14.5 | 0.00 | 0.00 | 0.00 | 43 | 1016.5 |
| 20260506231630 | 25 | 13 | 1.6 | 9.7 | 0.00 | 0.00 | 0.00 | 44 | 1016.6 |
| 20260506230904 | 25 | 10 | 3.2 | 9.7 | 0.00 | 0.00 | 0.00 | 43 | 1016.6 |
| 20260506230634 | 25 | 21 | 3.2 | 11.3 | 0.00 | 0.00 | 0.00 | 43 | 1016.7 |
| 20260506225902 | 25 | 31 | 6.4 | 11.3 | 0.00 | 0.00 | 0.00 | 44 | 1016.8 |
| 20260506225403 | 25 | 107 | 3.2 | 9.7 | 0.00 | 0.00 | 0.00 | 44 | 1016.7 |
| 20260506224902 | 25 | 28 | 6.4 | 19.3 | 0.00 | 0.00 | 0.00 | 44 | 1016.8 |
| 20260506224402 | 25 | 0 | 3.2 | 19.3 | 0.00 | 0.00 | 0.00 | 44 | 1016.9 |
| 20260506223902 | 25 | 348 | 6.4 | 14.5 | 0.00 | 0.00 | 0.00 | 44 | 1016.9 |
| 20260506223403 | 25 | 3 | 8.0 | 14.5 | 0.00 | 0.00 | 0.00 | 44 | 1017.1 |
| 20260506222902 | 25 | 80 | 3.2 | 11.3 | 0.00 | 0.00 | 0.00 | 44 | 1017.1 |
| 20260506222623 | 25 | 323 | 6.4 | 11.3 | 0.00 | 0.00 | 0.00 | 44 | 1017.2 |
| 20260506221901 | 24 | 1 | 6.4 | 14.5 | 0.00 | 0.00 | 0.00 | 44 | 1017.2 |
| 20260506221403 | 24 | 102 | 4.8 | 14.5 | 0.00 | 0.00 | 0.00 | 44 | 1017.3 |
| 20260506220901 | 25 | 58 | 3.2 | 9.7 | 0.00 | 0.00 | 0.00 | 44 | 1017.3 |
| 20260506220403 | 24 | 313 | 3.2 | 17.7 | 0.00 | 0.00 | 0.00 | 44 | 1017.4 |
| 20260506215902 | 24 | 137 | 6.4 | 17.7 | 0.00 | 0.00 | 0.00 | 44 | 1017.5 |
| 20260506215401 | 24 | 39 | 6.4 | 9.7 | 0.00 | 0.00 | 0.00 | 45 | 1017.4 |
| 20260506215125 | 24 | 10 | 6.4 | 16.1 | 0.00 | 0.00 | 0.00 | 44 | 1017.6 |
| 20260506214401 | 24 | 169 | 3.2 | 16.1 | 0.00 | 0.00 | 0.00 | 45 | 1017.6 |
| 20260506213901 | 23 | 96 | 6.4 | 16.1 | 0.00 | 0.00 | 0.00 | 46 | 1017.7 |
| 20260506213402 | 23 | 71 | 4.8 | 17.7 | 0.00 | 0.00 | 0.00 | 45 | 1017.7 |
| 20260506212901 | 24 | 44 | 4.8 | 17.7 | 0.00 | 0.00 | 0.00 | 45 | 1017.7 |
| 20260506212401 | 23 | 121 | 4.8 | 11.3 | 0.00 | 0.00 | 0.00 | 45 | 1017.8 |
| 20260506211901 | 23 | 78 | 3.2 | 14.5 | 0.00 | 0.00 | 0.00 | 45 | 1017.7 |
| 20260506211401 | 23 | 85 | 6.4 | 14.5 | 0.00 | 0.00 | 0.00 | 46 | 1017.9 |
| 20260506210902 | 23 | 66 | 3.2 | 14.5 | 0.00 | 0.00 | 0.00 | 47 | 1017.8 |
| 20260506210402 | 23 | 45 | 3.2 | 14.5 | 0.00 | 0.00 | 0.00 | 46 | 1017.9 |
| 20260506205900 | 23 | 49 | 6.4 | 14.5 | 0.00 | 0.00 | 0.00 | 46 | 1017.9 |
| 20260506205401 | 23 | 314 | 3.2 | 9.7 | 0.00 | 0.00 | 0.00 | 47 | 1017.9 |
| 20260506204901 | 22 | 274 | 1.6 | 14.5 | 0.00 | 0.00 | 0.00 | 46 | 1017.9 |
| 20260506204625 | 22 | 6 | 4.8 | 14.5 | 0.00 | 0.00 | 0.00 | 47 | 1017.9 |
| 20260506203901 | 22 | 10 | 4.8 | 14.5 | 0.00 | 0.00 | 0.00 | 49 | 1018.0 |
| 20260506203402 | 22 | 333 | 3.2 | 9.7 | 0.00 | 0.00 | 0.00 | 46 | 1018.0 |
| 20260506203122 | 22 | 0 | 8.0 | 9.7 | 0.00 | 0.00 | 0.00 | 48 | 1018.1 |
| 20260506202623 | 22 | 35 | 3.2 | 9.7 | 0.00 | 0.00 | 0.00 | 49 | 1018.1 |
| 20260506201859 | 22 | 55 | 4.8 | 9.7 | 0.00 | 0.00 | 0.00 | 50 | 1018.2 |
| 20260506201400 | 22 | 13 | 6.4 | 9.7 | 0.00 | 0.00 | 0.00 | 48 | 1018.2 |
| 20260506200859 | 22 | 71 | 4.8 | 11.3 | 0.00 | 0.00 | 0.00 | 48 | 1018.2 |
| 20260506200359 | 22 | 100 | 3.2 | 11.3 | 0.00 | 0.00 | 0.00 | 49 | 1018.3 |
| 20260506200124 | 22 | 44 | 8.0 | 11.3 | 0.00 | 0.00 | 0.00 | 49 | 1018.4 |
| 20260506195619 | 22 | 142 | 3.2 | 9.7 | 0.00 | 0.00 | 0.00 | 49 | 1018.4 |
| 20260506195121 | 21 | 0 | 1.6 | 9.7 | 0.00 | 0.00 | 0.00 | 50 | 1018.5 |
| 20260506194400 | 21 | 66 | 3.2 | 9.7 | 0.00 | 0.00 | 0.00 | 49 | 1018.4 |
| 20260506193901 | 22 | 0 | 1.6 | 9.7 | 0.00 | 0.00 | 0.00 | 50 | 1018.6 |
| 20260506193359 | 21 | 1 | 4.8 | 11.3 | 0.00 | 0.00 | 0.00 | 51 | 1018.6 |
| 20260506193126 | 21 | 133 | 8.0 | 11.3 | 0.00 | 0.00 | 0.00 | 51 | 1018.7 |
| 20260506192359 | 21 | 343 | 1.6 | 9.7 | 0.00 | 0.00 | 0.00 | 52 | 1018.8 |
| 20260506191858 | 21 | 3 | 4.8 | 9.7 | 0.00 | 0.00 | 0.00 | 52 | 1018.9 |
| 20260506191359 | 21 | 0 | 3.2 | 8.0 | 0.00 | 0.00 | 0.00 | 52 | 1018.8 |
| 20260506190858 | 21 | 18 | 0.0 | 11.3 | 0.00 | 0.00 | 0.00 | 52 | 1019.0 |
| 20260506190359 | 21 | 23 | 6.4 | 11.3 | 0.00 | 0.00 | 0.00 | 53 | 1019.1 |
| 20260506185858 | 21 | 52 | 4.8 | 9.7 | 0.00 | 0.00 | 0.00 | 53 | 1019.1 |
| 20260506185359 | 21 | 23 | 3.2 | 9.7 | 0.00 | 0.00 | 0.00 | 54 | 1019.2 |
| 20260506184859 | 20 | 32 | 4.8 | 14.5 | 0.00 | 0.00 | 0.00 | 53 | 1019.2 |
| 20260506184358 | 20 | 0 | 6.4 | 14.5 | 0.00 | 0.00 | 0.00 | 55 | 1019.1 |
| 20260506184116 | 20 | 214 | 1.6 | 11.3 | 0.00 | 0.00 | 0.00 | 56 | 1019.3 |
| 20260506183358 | 20 | 23 | 8.0 | 11.3 | 0.00 | 0.00 | 0.00 | 56 | 1019.3 |
| 20260506182859 | 20 | 214 | 1.6 | 4.8 | 0.00 | 0.00 | 0.00 | 57 | 1019.4 |
| 20260506182358 | 20 | 157 | 1.6 | 8.0 | 0.00 | 0.00 | 0.00 | 57 | 1019.4 |
| 20260506181859 | 20 | 147 | 3.2 | 8.0 | 0.00 | 0.00 | 0.00 | 59 | 1019.6 |
| 20260506181356 | 20 | 116 | 4.8 | 8.0 | 0.00 | 0.00 | 0.00 | 59 | 1019.6 |
| 20260506180859 | 19 | 68 | 3.2 | 8.0 | 0.00 | 0.00 | 0.00 | 60 | 1019.7 |
| 20260506180358 | 19 | 39 | 1.6 | 9.7 | 0.00 | 0.00 | 0.00 | 60 | 1019.7 |
| 20260506175858 | 19 | 63 | 3.2 | 9.7 | 0.00 | 0.00 | 0.00 | 61 | 1019.8 |
| 20260506175357 | 19 | 30 | 1.6 | 8.0 | 0.00 | 0.00 | 0.00 | 62 | 1019.7 |
| 20260506174858 | 18 | 30 | 0.0 | 8.0 | 0.00 | 0.00 | 0.00 | 61 | 1019.8 |
| 20260506174621 | 18 | 21 | 3.2 | 9.7 | 0.00 | 0.00 | 0.00 | 63 | 1020.0 |
| 20260506173857 | 18 | 61 | 6.4 | 9.7 | 0.00 | 0.00 | 0.00 | 63 | 1020.0 |
| 20260506173356 | 18 | 76 | 1.6 | 11.3 | 0.00 | 0.00 | 0.00 | 63 | 1020.0 |
| 20260506172858 | 18 | 92 | 6.4 | 11.3 | 0.00 | 0.00 | 0.00 | 63 | 1020.1 |
| 20260506172354 | 18 | 55 | 4.8 | 9.7 | 0.00 | 0.00 | 0.00 | 63 | 1020.1 |
| 20260506171857 | 18 | 357 | 4.8 | 9.7 | 0.00 | 0.03 | 0.00 | 63 | 1020.0 |
| 20260506171358 | 18 | 3 | 4.8 | 8.0 | 0.00 | 0.03 | 0.00 | 65 | 1020.1 |
| 20260506171124 | 18 | 326 | 3.2 | 8.0 | 0.00 | 0.03 | 0.00 | 64 | 1020.2 |
| 20260506170357 | 18 | 0 | 1.6 | 8.0 | 0.00 | 0.03 | 0.00 | 63 | 1020.2 |
| 20260506165855 | 18 | 0 | 3.2 | 9.7 | 0.00 | 0.03 | 0.00 | 65 | 1020.1 |
| 20260506165357 | 18 | 0 | 3.2 | 9.7 | 0.00 | 0.03 | 0.00 | 66 | 1020.1 |
| 20260506165130 | 18 | 1 | 6.4 | 9.7 | 0.00 | 0.03 | 0.00 | 66 | 1020.1 |
| 20260506164355 | 18 | 37 | 6.4 | 9.7 | 0.00 | 0.03 | 0.00 | 67 | 1020.0 |
| 20260506163856 | 17 | 348 | 4.8 | 9.7 | 0.00 | 0.03 | 0.00 | 67 | 1020.1 |
| 20260506163356 | 17 | 0 | 6.4 | 9.7 | 0.00 | 0.03 | 0.00 | 68 | 1020.2 |
| 20260506163116 | 17 | 330 | 4.8 | 9.7 | 0.00 | 0.05 | 0.00 | 70 | 1020.1 |
| 20260506162357 | 16 | 0 | 6.4 | 9.7 | 0.00 | 0.08 | 0.00 | 70 | 1020.2 |
| 20260506162119 | 16 | 0 | 1.6 | 8.0 | 0.00 | 0.08 | 0.00 | 71 | 1020.2 |
| 20260506161355 | 16 | 348 | 1.6 | 8.0 | 0.00 | 0.08 | 0.00 | 70 | 1020.2 |
| 20260506160857 | 16 | 0 | 3.2 | 9.7 | 0.00 | 0.08 | 0.00 | 70 | 1020.2 |
| 20260506160355 | 17 | 0 | 6.4 | 9.7 | 0.00 | 0.08 | 0.00 | 70 | 1020.2 |
| 20260506155854 | 16 | 0 | 1.6 | 11.3 | 0.00 | 0.08 | 0.00 | 70 | 1020.1 |
| 20260506155355 | 17 | 39 | 6.4 | 14.5 | 0.00 | 0.08 | 0.00 | 70 | 1020.1 |
| 20260506154854 | 16 | 6 | 4.8 | 14.5 | 0.00 | 0.08 | 0.00 | 71 | 1020.1 |
| 20260506154354 | 16 | 3 | 6.4 | 11.3 | 0.00 | 0.08 | 0.00 | 72 | 1019.8 |
| 20260506153855 | 16 | 0 | 4.8 | 14.5 | 0.00 | 0.08 | 0.00 | 72 | 1020.1 |
| 20260506153354 | 16 | 1 | 8.0 | 14.5 | 0.00 | 0.08 | 0.00 | 73 | 1020.1 |
| 20260506153339 | 16 | 348 | 4.8 | 14.5 | 0.00 | 0.08 | 0.00 | 74 | 1020.0 |
| 20260506152355 | 16 | 333 | 4.8 | 11.3 | 0.00 | 0.08 | 0.00 | 74 | 1020.1 |
| 20260506151854 | 15 | 351 | 6.4 | 9.7 | 0.00 | 0.08 | 0.00 | 75 | 1020.0 |
| 20260506151354 | 15 | 324 | 4.8 | 8.0 | 0.00 | 0.08 | 0.00 | 76 | 1020.0 |
| 20260506150855 | 15 | 337 | 4.8 | 8.0 | 0.00 | 0.10 | 0.00 | 77 | 1020.1 |
| 20260506150355 | 15 | 306 | 4.8 | 9.7 | 0.00 | 0.10 | 0.00 | 77 | 1020.0 |
| 20260506145854 | 15 | 336 | 3.2 | 11.3 | 0.00 | 0.10 | 0.00 | 77 | 1019.8 |
| 20260506145353 | 14 | 345 | 4.8 | 11.3 | 0.00 | 0.10 | 0.00 | 78 | 1019.8 |
| 20260506144852 | 14 | 333 | 3.2 | 8.0 | 0.00 | 0.10 | 0.00 | 78 | 1019.8 |
| 20260506144354 | 14 | 319 | 3.2 | 9.7 | 0.00 | 0.10 | 0.00 | 79 | 1020.0 |
| 20260506143852 | 14 | 271 | 8.0 | 11.3 | 0.00 | 0.10 | 0.00 | 79 | 1019.8 |
| 20260506143353 | 13 | 289 | 8.0 | 11.3 | 0.00 | 0.10 | 0.00 | 80 | 1019.8 |
| 20260506142854 | 13 | 283 | 6.4 | 11.3 | 0.00 | 0.10 | 0.00 | 80 | 1019.8 |
| 20260506142618 | 13 | 289 | 6.4 | 11.3 | 0.00 | 0.10 | 0.00 | 81 | 1019.8 |
| 20260506141853 | 13 | 313 | 6.4 | 9.7 | 0.00 | 0.10 | 0.00 | 81 | 1019.8 |
| 20260506141354 | 13 | 278 | 4.8 | 9.7 | 0.00 | 0.10 | 0.00 | 81 | 1019.7 |
| 20260506140854 | 13 | 286 | 4.8 | 9.7 | 0.00 | 0.10 | 0.00 | 81 | 1019.7 |
| 20260506140354 | 13 | 264 | 1.6 | 8.0 | 0.00 | 0.10 | 0.00 | 81 | 1019.7 |
| 20260506135852 | 12 | 261 | 3.2 | 6.4 | 0.00 | 0.10 | 0.00 | 82 | 1019.5 |
| 20260506135353 | 12 | 259 | 3.2 | 8.0 | 0.00 | 0.10 | 0.00 | 82 | 1019.5 |
| 20260506134854 | 12 | 240 | 1.6 | 8.0 | 0.00 | 0.10 | 0.00 | 82 | 1019.4 |
| 20260506134352 | 12 | 252 | 0.0 | 6.4 | 0.00 | 0.10 | 0.00 | 82 | 1019.4 |
| 20260506133852 | 12 | 268 | 1.6 | 6.4 | 0.00 | 0.15 | 0.00 | 82 | 1019.3 |
| 20260506133352 | 12 | 271 | 4.8 | 6.4 | 0.00 | 0.18 | 0.00 | 82 | 1019.3 |
| 20260506132853 | 12 | 252 | 0.0 | 4.8 | 0.00 | 0.20 | 0.00 | 82 | 1019.2 |
| 20260506132351 | 12 | 234 | 3.2 | 4.8 | 0.00 | 0.20 | 0.00 | 82 | 1019.2 |
| 20260506131852 | 12 | 274 | 1.6 | 6.4 | 0.00 | 0.20 | 0.00 | 81 | 1019.2 |
| 20260506131832 | 12 | 275 | 3.2 | 6.4 | 0.00 | 0.20 | 0.00 | 81 | 1019.1 |
| 20260506130852 | 12 | 278 | 1.6 | 6.4 | 0.00 | 0.20 | 0.00 | 81 | 1019.1 |
| 20260506130351 | 12 | 279 | 1.6 | 6.4 | 0.00 | 0.20 | 0.00 | 80 | 1019.1 |
| 20260506125852 | 12 | 279 | 1.6 | 6.4 | 0.00 | 0.23 | 0.00 | 80 | 1019.0 |
| 20260506125614 | 12 | 281 | 1.6 | 4.8 | 0.00 | 0.23 | 0.00 | 80 | 1019.0 |
| 20260506124852 | 12 | 281 | 1.6 | 4.8 | 0.00 | 0.25 | 0.00 | 80 | 1018.9 |
| 20260506124350 | 12 | 228 | 0.0 | 4.8 | 0.00 | 0.25 | 0.00 | 80 | 1018.8 |
| 20260506123851 | 12 | 227 | 0.0 | 4.8 | 0.00 | 0.28 | 0.00 | 80 | 1018.7 |
| 20260506123352 | 12 | 227 | 1.6 | 6.4 | 0.00 | 0.30 | 0.00 | 79 | 1018.8 |
| 20260506122850 | 12 | 226 | 3.2 | 6.4 | 0.00 | 0.30 | 0.00 | 79 | 1018.7 |
| 20260506122351 | 12 | 216 | 1.6 | 8.0 | 0.00 | 0.30 | 0.00 | 79 | 1018.6 |
| 20260506121851 | 12 | 231 | 3.2 | 8.0 | 0.00 | 0.30 | 0.00 | 79 | 1018.4 |
| 20260506121351 | 12 | 209 | 3.2 | 6.4 | 0.00 | 0.30 | 0.00 | 79 | 1018.5 |
| 20260506120850 | 12 | 209 | 3.2 | 4.8 | 0.00 | 0.30 | 0.00 | 79 | 1018.5 |
| 20260506120350 | 13 | 274 | 1.6 | 6.4 | 0.00 | 0.30 | 0.00 | 79 | 1018.5 |
| 20260506115852 | 13 | 275 | 3.2 | 6.4 | 0.00 | 0.30 | 0.00 | 79 | 1018.5 |
| 20260506115351 | 13 | 283 | 0.0 | 4.8 | 0.00 | 0.30 | 0.00 | 79 | 1018.6 |
| 20260506115113 | 13 | 283 | 0.0 | 4.8 | 0.00 | 0.30 | 0.00 | 79 | 1018.7 |
| 20260506114350 | 13 | 283 | 0.0 | 4.8 | 0.00 | 0.33 | 0.00 | 79 | 1018.7 |
| 20260506113849 | 13 | 283 | 1.6 | 6.4 | 0.00 | 0.51 | 0.00 | 79 | 1018.5 |
| 20260506113350 | 13 | 283 | 1.6 | 6.4 | 0.00 | 0.53 | 0.00 | 78 | 1018.6 |
| 20260506112850 | 13 | 283 | 3.2 | 6.4 | 0.00 | 0.53 | 0.00 | 77 | 1018.7 |
| 20260506112614 | 13 | 285 | 4.8 | 6.4 | 0.00 | 0.53 | 0.00 | 77 | 1018.6 |
| 20260506111851 | 13 | 285 | 4.8 | 6.4 | 0.00 | 0.53 | 0.00 | 77 | 1018.5 |
| 20260506111349 | 13 | 288 | 4.8 | 8.0 | 0.00 | 0.53 | 0.00 | 77 | 1018.5 |
| 20260506110851 | 13 | 300 | 3.2 | 9.7 | 0.00 | 0.53 | 0.00 | 76 | 1018.6 |
| 20260506110350 | 13 | 293 | 3.2 | 9.7 | 0.00 | 0.53 | 0.00 | 76 | 1018.6 |
| 20260506105849 | 13 | 290 | 3.2 | 8.0 | 0.00 | 0.53 | 0.00 | 76 | 1018.5 |
| 20260506105350 | 13 | 281 | 4.8 | 8.0 | 0.00 | 0.53 | 0.00 | 76 | 1018.5 |
| 20260506104850 | 13 | 271 | 4.8 | 8.0 | 0.00 | 0.53 | 0.00 | 76 | 1018.5 |
| 20260506104613 | 13 | 289 | 4.8 | 8.0 | 0.00 | 0.53 | 0.00 | 76 | 1018.5 |
| 20260506103849 | 13 | 286 | 4.8 | 8.0 | 0.00 | 0.53 | 0.00 | 76 | 1018.5 |
| 20260506103609 | 13 | 282 | 3.2 | 9.7 | 0.00 | 0.56 | 0.00 | 76 | 1018.4 |
| 20260506102850 | 13 | 278 | 4.8 | 9.7 | 0.00 | 0.56 | 0.00 | 76 | 1018.5 |
| 20260506102349 | 13 | 272 | 6.4 | 9.7 | 0.00 | 0.56 | 0.00 | 76 | 1018.5 |
| 20260506101848 | 13 | 289 | 4.8 | 14.5 | 0.00 | 0.56 | 0.00 | 76 | 1018.5 |
| 20260506101348 | 13 | 283 | 6.4 | 14.5 | 0.00 | 0.56 | 0.00 | 75 | 1018.4 |
| 20260506101335 | 13 | 276 | 8.0 | 16.1 | 0.00 | 0.56 | 0.00 | 75 | 1018.3 |
| 20260506100348 | 13 | 282 | 6.4 | 16.1 | 0.00 | 0.58 | 0.00 | 75 | 1018.3 |
| 20260506100108 | 13 | 296 | 8.0 | 11.3 | 0.00 | 0.58 | 0.00 | 75 | 1018.2 |
| 20260506095348 | 13 | 279 | 6.4 | 11.3 | 0.00 | 0.58 | 0.00 | 75 | 1018.2 |
| 20260506094849 | 13 | 286 | 8.0 | 11.3 | 0.00 | 0.58 | 0.00 | 75 | 1018.2 |
| 20260506094348 | 13 | 298 | 6.4 | 11.3 | 0.00 | 0.58 | 0.00 | 75 | 1018.2 |
| 20260506093848 | 13 | 292 | 8.0 | 14.5 | 0.00 | 0.58 | 0.00 | 74 | 1018.1 |
| 20260506093348 | 13 | 272 | 8.0 | 14.5 | 0.00 | 0.58 | 0.00 | 74 | 1018.2 |
| 20260506093111 | 13 | 278 | 6.4 | 11.3 | 0.00 | 0.58 | 0.00 | 73 | 1018.2 |
| 20260506092349 | 13 | 274 | 8.0 | 14.5 | 0.00 | 0.58 | 0.00 | 73 | 1018.1 |
| 20260506091849 | 13 | 278 | 8.0 | 14.5 | 0.00 | 0.58 | 0.00 | 72 | 1018.1 |
| 20260506091347 | 13 | 243 | 4.8 | 11.3 | 0.00 | 0.58 | 0.00 | 72 | 1018.0 |
| 20260506091108 | 13 | 274 | 6.4 | 11.3 | 0.00 | 0.58 | 0.00 | 72 | 1018.0 |
| 20260506090348 | 13 | 282 | 6.4 | 11.3 | 0.00 | 0.58 | 0.00 | 72 | 1018.0 |
| 20260506085848 | 13 | 259 | 4.8 | 8.0 | 0.00 | 0.58 | 0.00 | 71 | 1018.1 |
| 20260506085607 | -17 | 0.0 | 11.3 | 0.00 | 0.58 | 0.00 | 1018.1 | ||
| 20260506085107 | 13 | 261 | 6.4 | 11.3 | 0.00 | 0.58 | 0.00 | 71 | 1018.0 |
| 20260506084340 | 13 | 275 | 8.0 | 11.3 | 0.00 | 0.58 | 0.00 | 71 | 1018.0 |
| 20260506083842 | 13 | 276 | 3.2 | 8.0 | 0.00 | 0.58 | 0.00 | 70 | 1018.2 |
| 20260506083340 | 13 | 271 | 1.6 | 8.0 | 0.00 | 0.58 | 0.00 | 70 | 1018.1 |
| 20260506082840 | 13 | 278 | 3.2 | 8.0 | 0.00 | 0.58 | 0.00 | 70 | 1018.0 |
| 20260506082340 | 13 | 269 | 3.2 | 8.0 | 0.00 | 0.58 | 0.00 | 70 | 1018.0 |
| 20260506082329 | 13 | 262 | 3.2 | 8.0 | 0.00 | 0.58 | 0.00 | 70 | 1018.0 |
| 20260506081341 | 13 | 224 | 3.2 | 6.4 | 0.00 | 0.58 | 0.00 | 70 | 1017.9 |
| 20260506080840 | 13 | 217 | 1.6 | 4.8 | 0.00 | 0.58 | 0.00 | 70 | 1017.8 |
| 20260506080340 | 13 | 217 | 1.6 | 4.8 | 0.00 | 0.58 | 0.00 | 71 | 1017.8 |
| 20260506072841 | 13 | 214 | 0.0 | 3.2 | 0.00 | 0.58 | 0.00 | 70 | 1017.7 |
| 20260506072338 | 13 | 214 | 1.6 | 3.2 | 0.00 | 0.58 | 0.00 | 70 | 1017.5 |
| 20260506071838 | 13 | 214 | 1.6 | 3.2 | 0.00 | 0.58 | 0.00 | 70 | 1017.6 |
| 20260506071339 | 13 | 214 | 1.6 | 4.8 | 0.00 | 0.58 | 0.00 | 70 | 1017.5 |
| 20260506070838 | 13 | 214 | 1.6 | 4.8 | 0.00 | 0.58 | 0.00 | 70 | 1017.4 |
| 20260506070340 | 13 | 214 | 0.0 | 4.8 | 0.00 | 0.58 | 0.00 | 70 | 1017.4 |
| 20260506062053 | 13 | 207 | 1.6 | 6.4 | 0.00 | 0.58 | 0.58 | 71 | 1016.8 |
| 20260506061338 | 13 | 210 | 1.6 | 8.0 | 0.00 | 0.58 | 0.58 | 71 | 1016.8 |
| 20260506060838 | 13 | 197 | 3.2 | 8.0 | 0.00 | 0.58 | 0.58 | 72 | 1016.7 |
| 20260506060406 | 13 | 200 | 3.2 | 8.0 | 0.00 | 0.58 | 0.58 | 73 | 1016.7 |
| 20260506051337 | 14 | 188 | 6.4 | 9.7 | 0.00 | 0.58 | 0.58 | 73 | 1016.7 |
| 20260506050836 | 14 | 193 | 4.8 | 8.0 | 0.00 | 0.58 | 0.58 | 73 | 1016.7 |
| 20260506050336 | 14 | 193 | 3.2 | 8.0 | 0.00 | 0.58 | 0.58 | 74 | 1016.6 |
| 20260506044835 | 14 | 199 | 6.4 | 11.3 | 0.00 | 0.58 | 0.58 | 73 | 1016.4 |
| 20260506044335 | 14 | 204 | 4.8 | 6.4 | 0.00 | 0.58 | 0.58 | 73 | 1016.5 |
| 20260506043836 | 15 | 197 | 1.6 | 6.4 | 0.00 | 0.58 | 0.58 | 73 | 1016.4 |
| 20260506043336 | 15 | 188 | 3.2 | 6.4 | 0.00 | 0.58 | 0.58 | 73 | 1016.4 |
| 20260506043102 | 15 | 164 | 3.2 | 6.4 | 0.00 | 0.58 | 0.58 | 72 | 1016.3 |
| 20260506042337 | 15 | 137 | 1.6 | 3.2 | 0.00 | 0.58 | 0.58 | 71 | 1016.2 |
| 20260506041835 | 15 | 120 | 0.0 | 3.2 | 0.00 | 0.58 | 0.58 | 70 | 1016.1 |
| 20260506041335 | 15 | 120 | 1.6 | 3.2 | 0.00 | 0.58 | 0.58 | 69 | 1016.0 |